Oakes, ND

1:53 PM CDT on July 23, 2017 (GMT -0500)
Oakes

Weather History for K2D5 - December, 2012

Change the Weather History Date:

Sunday, December 2, 2012

  Actual Average (KP67) Record (KP67)
Temperature  
Mean Temperature 38 °F -  
Max Temperature 53 °F 22 °F 30 °F (1997)
Min Temperature 23 °F 12 °F -2 °F (1996)
Degree Days  
Heating Degree Days 27    
Moisture  
Dew Point 32 °F    
Average Humidity 77    
Maximum Humidity 100    
Minimum Humidity 51    
Precipitation  
Precipitation 0.00 in - - ()
Sea Level Pressure  
Sea Level Pressure 29.68 in    
Wind  
Wind Speed 10 mph (SSE)    
Max Wind Speed 30 mph    
Max Gust Speed 36 mph    
Visibility 7 miles    
Events Fog    
Averages and records for this station are not official NWS values.
T = Trace of Precipitation, MM = Missing Value Source: NWS Daily Summary

Daily Weather History Graph

Daily Weather History Graph

Search for Another Location

Airport or City:

Trip Planner

Search our weather history database for the weather conditions in past years. The results will help you decide how hot, cold, wet, or windy it might be!

Date:

Astronomy

Dec. 02, 2012 Rise Set
Actual Time 7:56 AM CST 4:47 PM CST
Civil Twilight 7:22 AM CST 5:21 PM CST
Nautical Twilight 6:44 AM CST 5:59 PM CST
Astronomical Twilight 6:08 AM CST 6:35 PM CST
Moon 8:42 PM CST (12/2) 10:41 AM CST (12/2)
Length of Visible Light 9h 59m
Length of Day
8h 51m
Waning Gibbous, 85% of the Moon is Illuminated
Dec 2
Waning Gibbous
Dec 6
Last Quarter
Dec 13
New
Dec 19
First Quarter
Dec 28
Full

Hourly Weather History & Observations

Time (CST) Temp. Windchill Dew Point Humidity Pressure Visibility Wind Dir Wind Speed Gust Speed Precip Events Conditions
12:15 AM 32.0 °F 28.7 °F 32.0 °F 100% 29.86 in 5.0 mi ESE 3.5 mph - N/A   Mist
12:35 AM 32.0 °F 27.5 °F 32.0 °F 100% 29.86 in 5.0 mi SE 4.6 mph - N/A   Mist
12:55 AM 32.0 °F 27.5 °F 32.0 °F 100% 29.86 in 5.0 mi SE 4.6 mph - N/A   Mist
1:15 AM 32.0 °F 28.7 °F 32.0 °F 100% 29.86 in 4.0 mi SE 3.5 mph - N/A   Mist
1:35 AM 32.0 °F 26.4 °F 32.0 °F 100% 29.86 in 4.0 mi SSE 5.8 mph - N/A   Mist
1:55 AM 32.0 °F 25.6 °F 32.0 °F 100% 29.87 in 3.0 mi South 6.9 mph - N/A   Mist
2:15 AM 32.0 °F 27.5 °F 32.0 °F 100% 29.87 in 2.0 mi SSE 4.6 mph - N/A   Mist
2:35 AM 32.0 °F 26.4 °F 32.0 °F 100% 29.88 in 0.8 mi South 5.8 mph - N/A   Mist
2:55 AM 32.0 °F 24.8 °F 32.0 °F 100% 29.88 in 0.5 mi South 8.1 mph - N/A Fog Fog
3:15 AM 32.0 °F 26.4 °F 32.0 °F 100% 29.88 in 0.8 mi SSE 5.8 mph - N/A   Mist
3:35 AM 32.0 °F 26.4 °F 32.0 °F 100% 29.87 in 0.2 mi SSE 5.8 mph - N/A Fog Fog
3:55 AM 32.0 °F 25.6 °F 32.0 °F 100% 29.86 in 0.8 mi SSE 6.9 mph - N/A   Mist
4:15 AM 30.2 °F 23.4 °F 30.2 °F 100% 29.85 in 0.2 mi SE 6.9 mph - N/A Fog Light Freezing Fog
4:35 AM 26.6 °F 20.0 °F 26.6 °F 100% 29.85 in 0.2 mi SSE 5.8 mph - N/A Fog Light Freezing Fog
4:55 AM 26.6 °F 20.0 °F 26.6 °F 100% 29.85 in 0.2 mi SSE 5.8 mph - N/A Fog Light Freezing Fog
5:15 AM 24.8 °F 17.9 °F 24.8 °F 100% 29.85 in 0.2 mi SE 5.8 mph - N/A Fog Light Freezing Fog
5:35 AM 23.0 °F 18.4 °F 23.0 °F 100% 29.86 in 0.2 mi SE 3.5 mph - N/A Fog Light Freezing Fog
6:15 AM 23.0 °F 14.7 °F 23.0 °F 100% 29.85 in 0.2 mi SE 6.9 mph - N/A Fog Light Freezing Fog
6:35 AM 23.0 °F 13.1 °F 23.0 °F 100% 29.84 in 2.5 mi SE 9.2 mph - N/A   Mist
6:55 AM 23.0 °F 14.7 °F 23.0 °F 100% 29.84 in 3.0 mi ESE 6.9 mph - N/A   Mist
7:15 AM 23.0 °F 14.7 °F 23.0 °F 100% 29.83 in 4.0 mi SE 6.9 mph - N/A   Clear
7:35 AM 23.0 °F 14.7 °F 23.0 °F 100% 29.83 in 4.0 mi SSE 6.9 mph - N/A   Clear
7:55 AM 23.0 °F 13.1 °F 23.0 °F 100% 29.82 in 3.0 mi SE 9.2 mph - N/A   Clear
8:15 AM 24.8 °F 14.6 °F 24.8 °F 100% 29.82 in 3.0 mi SSE 10.4 mph - N/A   Clear
8:35 AM 24.8 °F 15.3 °F 24.8 °F 100% 29.82 in 4.0 mi SSE 9.2 mph - N/A   Mist
8:55 AM 26.6 °F 17.5 °F 26.6 °F 100% 29.81 in 4.0 mi SSE 9.2 mph - N/A   Mist
9:15 AM 28.4 °F 19.1 °F 28.4 °F 100% 29.80 in 5.0 mi SSE 10.4 mph - N/A   Mist
9:35 AM 28.4 °F 19.1 °F 28.4 °F 100% 29.81 in 5.0 mi South 10.4 mph - N/A   Mist
9:55 AM 32.0 °F 25.6 °F 32.0 °F 100% 29.82 in 5.0 mi South 6.9 mph - N/A   Mist
10:15 AM 32.0 °F 23.6 °F 32.0 °F 100% 29.81 in 7.0 mi South 10.4 mph - N/A   Unknown
10:35 AM 35.6 °F 26.6 °F 35.6 °F 100% 29.79 in 8.0 mi South 13.8 mph - N/A   Unknown
10:55 AM 37.4 °F 29.3 °F 37.4 °F 100% 29.78 in 10.0 mi South 12.7 mph - N/A   Unknown
11:15 AM 41.0 °F 33.9 °F 37.4 °F 87% 29.77 in 10.0 mi South 12.7 mph - N/A   Unknown
11:35 AM 44.6 °F 36.9 °F 37.4 °F 76% 29.73 in 10.0 mi SSE 18.4 mph - N/A   Unknown
11:55 AM 48.2 °F - 37.4 °F 66% 29.71 in 10.0 mi South 17.3 mph 26.5 mph N/A   Unknown
12:15 PM 50.0 °F - 37.4 °F 62% 29.70 in 10.0 mi South 20.7 mph 25.3 mph N/A   Clear
12:35 PM 50.0 °F - 35.6 °F 58% 29.69 in 10.0 mi South 24.2 mph 32.2 mph N/A   Clear
12:55 PM 50.0 °F - 35.6 °F 58% 29.70 in 10.0 mi South 18.4 mph - N/A   Clear
1:15 PM 51.8 °F - 35.6 °F 54% 29.69 in 10.0 mi South 20.7 mph 25.3 mph N/A   Clear
1:35 PM 51.8 °F - 35.6 °F 54% 29.66 in 10.0 mi South 19.6 mph - N/A   Clear
1:55 PM 51.8 °F - 35.6 °F 54% 29.65 in 10.0 mi South 19.6 mph - N/A   Clear
2:15 PM 51.8 °F - 35.6 °F 54% 29.64 in 10.0 mi South 17.3 mph - N/A   Clear
2:35 PM 51.8 °F - 35.6 °F 54% 29.63 in 10.0 mi South 18.4 mph 23.0 mph N/A   Clear
3:15 PM 51.8 °F - 35.6 °F 54% 29.59 in 10.0 mi South 13.8 mph - N/A   Clear
3:35 PM 51.8 °F - 35.6 °F 54% 29.59 in 10.0 mi South 12.7 mph - N/A   Clear
3:55 PM 50.0 °F - 35.6 °F 58% 29.59 in 10.0 mi South 12.7 mph 18.4 mph N/A   Clear
4:15 PM 50.0 °F - 33.8 °F 54% 29.58 in 10.0 mi South 12.7 mph - N/A   Clear
4:35 PM 46.4 °F 41.5 °F 32.0 °F 57% 29.56 in 10.0 mi SSE 10.4 mph - N/A   Clear
4:55 PM 41.0 °F 34.3 °F 32.0 °F 70% 29.55 in 10.0 mi SSE 11.5 mph - N/A   Clear
5:15 PM 39.2 °F 32.0 °F 32.0 °F 75% 29.54 in 10.0 mi SE 11.5 mph - N/A   Clear
5:35 PM 41.0 °F 33.1 °F 32.0 °F 70% 29.53 in 10.0 mi SSE 15.0 mph - N/A   Clear
5:55 PM 44.6 °F 37.8 °F 32.0 °F 61% 29.52 in 10.0 mi SSE 15.0 mph - N/A   Clear
6:15 PM 46.4 °F 39.2 °F 33.8 °F 62% 29.51 in 10.0 mi SSE 18.4 mph - N/A   Clear
6:35 PM 48.2 °F - 33.8 °F 58% 29.51 in 10.0 mi SSE 18.4 mph 25.3 mph N/A   Clear
6:55 PM 48.2 °F - 33.8 °F 58% 29.49 in 10.0 mi SSE 19.6 mph 25.3 mph N/A   Clear
7:15 PM 48.2 °F - 35.6 °F 62% 29.48 in 10.0 mi South 21.9 mph 25.3 mph N/A   Clear
7:35 PM 50.0 °F - 35.6 °F 58% 29.47 in 10.0 mi South 24.2 mph 29.9 mph N/A   Clear
7:55 PM 51.8 °F - 35.6 °F 54% 29.46 in 10.0 mi South 23.0 mph 31.1 mph N/A   Clear
8:15 PM 51.8 °F - 35.6 °F 54% 29.45 in 10.0 mi South 21.9 mph 27.6 mph N/A   Clear
8:35 PM 53.6 °F - 35.6 °F 51% 29.44 in 10.0 mi South 25.3 mph 34.5 mph N/A   Clear
8:55 PM 53.6 °F - 35.6 °F 51% 29.44 in 10.0 mi South 25.3 mph 35.7 mph N/A   Clear
9:15 PM 53.6 °F - 35.6 °F 51% 29.43 in 10.0 mi South 23.0 mph 33.4 mph N/A   Clear
9:35 PM 53.6 °F - 35.6 °F 51% 29.42 in 10.0 mi South 25.3 mph 34.5 mph N/A   Clear
9:55 PM 53.6 °F - 35.6 °F 51% 29.41 in 10.0 mi South 29.9 mph 35.7 mph N/A   Clear
10:15 PM 53.6 °F - 37.4 °F 54% 29.41 in 10.0 mi South 24.2 mph 34.5 mph N/A   Clear
10:35 PM 53.6 °F - 37.4 °F 54% 29.41 in 10.0 mi South 20.7 mph - N/A   Clear
10:55 PM 53.6 °F - 35.6 °F 51% 29.41 in 10.0 mi South 21.9 mph 26.5 mph N/A   Clear
11:15 PM 53.6 °F - 35.6 °F 51% 29.40 in 10.0 mi South 24.2 mph 33.4 mph N/A   Clear
11:35 PM 51.8 °F - 35.6 °F 54% 29.40 in 10.0 mi South 20.7 mph 29.9 mph N/A   Clear
11:55 PM 50.0 °F - 35.6 °F 58% 29.40 in 10.0 mi South 21.9 mph 28.8 mph N/A   Clear